| time (UTC) | temp F | wind direction | speed MPH | gust MPH | rain 1hr in | rain 24hr in | rain mn in | humidity % | barometer mb |
| 20260504100143 | 55 | 225 | 0.0 | 0.0 | 0.00 | 0.00 | 0.00 | 75 | 985.8 |
| 20260504090122 | 55 | 225 | 0.0 | 0.0 | 0.00 | 0.00 | 0.00 | 74 | 986.0 |
| 20260504081124 | 55 | 203 | 0.0 | 0.0 | 0.00 | 0.00 | 0.00 | 74 | 986.1 |
| 20260504080124 | 55 | 180 | 0.0 | 0.0 | 0.00 | 0.00 | 0.00 | 74 | 986.1 |
| 20260504070122 | 55 | 225 | 0.0 | 0.0 | 0.00 | 0.00 | 0.00 | 73 | 986.5 |
| 20260504060144 | 56 | 158 | 0.0 | 0.0 | 0.00 | 0.00 | 0.00 | 73 | 987.0 |
| 20260504050143 | 56 | 225 | 0.0 | 0.0 | 0.00 | 0.00 | 0.00 | 71 | 987.1 |
| 20260504045123 | 56 | 225 | 0.0 | 0.0 | 0.00 | 0.00 | 0.00 | 71 | 987.2 |
| 20260504044143 | 56 | 203 | 0.0 | 0.0 | 0.00 | 0.00 | 0.00 | 71 | 987.2 |
| 20260504043123 | 55 | 225 | 0.0 | 0.0 | 0.00 | 0.00 | 0.00 | 71 | 987.5 |
| 20260504042122 | 55 | 225 | 0.0 | 0.0 | 0.00 | 0.00 | 0.00 | 72 | 987.5 |
| 20260504041123 | 55 | 248 | 0.0 | 0.0 | 0.00 | 0.00 | 0.00 | 73 | 987.8 |
| 20260504040122 | 54 | 225 | 0.0 | 0.0 | 0.00 | 0.00 | 0.00 | 74 | 987.9 |
| 20260504035122 | 54 | 225 | 0.0 | 0.0 | 0.00 | 0.00 | 0.00 | 73 | 987.9 |
| 20260504034122 | 54 | 225 | 0.0 | 0.0 | 0.00 | 0.00 | 0.00 | 75 | 988.0 |
| 20260504033122 | 55 | 180 | 0.0 | 0.0 | 0.00 | 0.00 | 0.00 | 74 | 988.0 |
| 20260504032143 | 55 | 270 | 0.0 | 0.0 | 0.00 | 0.00 | 0.00 | 75 | 987.9 |
| 20260504031122 | 55 | 90 | 0.0 | 0.0 | 0.00 | 0.00 | 0.00 | 74 | 987.9 |
| 20260504030122 | 55 | 90 | 0.0 | 0.0 | 0.00 | 0.00 | 0.00 | 74 | 987.9 |
| 20260504025125 | 55 | 68 | 0.0 | 0.0 | 0.00 | 0.00 | 0.00 | 70 | 987.9 |
| 20260504024123 | 55 | 225 | 0.0 | 0.0 | 0.00 | 0.00 | 0.00 | 71 | 987.7 |
| 20260504023123 | 55 | 225 | 0.0 | 0.0 | 0.00 | 0.00 | 0.00 | 70 | 987.6 |
| 20260504022144 | 55 | 225 | 0.0 | 0.0 | 0.00 | 0.00 | 0.00 | 70 | 987.5 |
| 20260504021122 | 55 | 180 | 0.0 | 0.0 | 0.00 | 0.00 | 0.00 | 71 | 987.5 |
| 20260504020122 | 56 | 270 | 0.0 | 0.0 | 0.00 | 0.00 | 0.00 | 71 | 987.5 |
| 20260504015122 | 56 | 270 | 0.0 | 0.0 | 0.00 | 0.00 | 0.00 | 71 | 987.5 |
| 20260504014122 | 56 | 270 | 0.0 | 0.0 | 0.00 | 0.00 | 0.00 | 71 | 987.6 |
| 20260504013123 | 57 | 270 | 0.0 | 0.0 | 0.00 | 0.00 | 0.00 | 72 | 987.4 |
| 20260504012143 | 57 | 270 | 0.0 | 0.0 | 0.00 | 0.00 | 0.00 | 69 | 987.5 |
| 20260504011143 | 58 | 270 | 0.0 | 0.0 | 0.00 | 0.00 | 0.00 | 67 | 987.5 |
| 20260504010123 | 59 | 270 | 0.0 | 0.0 | 0.00 | 0.00 | 0.00 | 65 | 987.6 |
| 20260504005123 | 59 | 270 | 0.0 | 0.0 | 0.00 | 0.00 | 0.00 | 64 | 987.6 |
| 20260504004144 | 61 | 225 | 0.0 | 0.0 | 0.00 | 0.00 | 0.00 | 62 | 987.7 |
| 20260504003122 | 62 | 203 | 0.0 | 0.0 | 0.00 | 0.00 | 0.00 | 58 | 987.7 |
| 20260504002122 | 62 | 203 | 0.0 | 0.0 | 0.00 | 0.00 | 0.00 | 57 | 987.7 |
| 20260504001123 | 64 | 203 | 0.0 | 0.0 | 0.00 | 0.00 | 0.00 | 56 | 987.8 |
| 20260504000122 | 64 | 203 | 0.0 | 0.0 | 0.00 | 0.00 | 0.00 | 53 | 987.8 |
| 20260503235123 | 64 | 203 | 0.0 | 0.0 | 0.00 | 0.00 | 0.00 | 51 | 987.8 |
| 20260503234122 | 65 | 203 | 0.0 | 0.0 | 0.00 | 0.00 | 0.00 | 51 | 988.0 |
| 20260503233122 | 66 | 203 | 0.0 | 0.0 | 0.00 | 0.00 | 0.00 | 51 | 988.2 |
| 20260503232143 | 66 | 203 | 0.0 | 0.0 | 0.00 | 0.00 | 0.00 | 48 | 988.2 |
| 20260503231122 | 66 | 203 | 0.0 | 0.0 | 0.00 | 0.00 | 0.00 | 50 | 988.4 |
| 20260503230123 | 67 | 248 | 0.0 | 0.0 | 0.00 | 0.00 | 0.00 | 48 | 988.4 |
| 20260503225122 | 67 | 225 | 0.0 | 0.0 | 0.00 | 0.00 | 0.00 | 47 | 988.4 |
| 20260503224122 | 68 | 225 | 0.0 | 0.0 | 0.00 | 0.00 | 0.00 | 45 | 988.4 |
| 20260503223122 | 68 | 270 | 0.0 | 0.0 | 0.00 | 0.00 | 0.00 | 45 | 988.5 |
| 20260503222122 | 68 | 270 | 0.0 | 0.0 | 0.00 | 0.00 | 0.00 | 46 | 988.6 |
| 20260503221122 | 68 | 52 | 0.0 | 10.0 | 0.00 | 0.00 | 0.00 | 45 | 988.8 |
| 20260503220144 | 68 | 225 | 0.0 | 0.0 | 0.00 | 0.00 | 0.00 | 44 | 988.8 |
| 20260503215123 | 69 | 248 | 0.0 | 0.0 | 0.00 | 0.00 | 0.00 | 44 | 989.0 |
| 20260503214123 | 69 | 315 | 0.0 | 0.0 | 0.00 | 0.00 | 0.00 | 43 | 989.2 |
| 20260503213122 | 69 | 248 | 0.0 | 0.0 | 0.00 | 0.00 | 0.00 | 42 | 989.2 |
| 20260503212148 | 70 | 158 | 0.0 | 0.0 | 0.00 | 0.00 | 0.00 | 41 | 989.5 |
| 20260503211143 | 71 | 270 | 0.0 | 0.0 | 0.00 | 0.01 | 0.00 | 40 | 989.8 |
| 20260503210122 | 72 | 180 | 0.0 | 0.0 | 0.00 | 0.01 | 0.00 | 40 | 989.8 |
| 20260503205122 | 75 | 225 | 0.0 | 0.0 | 0.00 | 0.00 | 0.00 | 37 | 989.9 |
| 20260503204122 | 75 | 203 | 0.0 | 0.0 | 0.00 | 0.00 | 0.00 | 37 | 990.0 |
| 20260503203122 | 79 | 158 | 0.0 | 0.0 | 0.00 | 0.00 | 0.00 | 35 | 990.2 |
| 20260503202144 | 80 | 270 | 0.0 | 0.0 | 0.00 | 0.00 | 0.00 | 34 | 990.6 |
| 20260503201123 | 76 | 225 | 0.0 | 0.0 | 0.00 | 0.00 | 0.00 | 36 | 990.8 |
| 20260503200126 | 78 | 104 | 0.0 | 2.0 | 0.00 | 0.00 | 0.00 | 33 | 990.8 |
| 20260503195125 | 80 | 225 | 0.0 | 0.0 | 0.00 | 0.00 | 0.00 | 33 | 990.9 |
| 20260503194122 | 80 | 225 | 0.0 | 0.0 | 0.00 | 0.00 | 0.00 | 34 | 991.2 |
| 20260503193144 | 77 | 203 | 0.0 | 0.0 | 0.00 | 0.00 | 0.00 | 36 | 991.2 |
| 20260503192123 | 78 | 225 | 0.0 | 0.0 | 0.00 | 0.00 | 0.00 | 34 | 991.5 |
| 20260503191122 | 79 | 68 | 0.0 | 0.0 | 0.00 | 0.00 | 0.00 | 37 | 991.7 |
| 20260503190122 | 79 | 158 | 0.0 | 0.0 | 0.00 | 0.00 | 0.00 | 36 | 991.7 |
| 20260503185125 | 78 | 23 | 0.0 | 4.0 | 0.00 | 0.00 | 0.00 | 36 | 991.9 |
| 20260503184125 | 75 | 225 | 0.0 | 0.0 | 0.00 | 0.00 | 0.00 | 36 | 992.0 |
| 20260503183145 | 75 | 270 | 0.0 | 0.0 | 0.00 | 0.00 | 0.00 | 37 | 992.2 |
| 20260503182123 | 76 | 225 | 0.0 | 0.0 | 0.00 | 0.00 | 0.00 | 36 | 992.2 |
| 20260503181122 | 76 | 203 | 0.0 | 0.0 | 0.00 | 0.00 | 0.00 | 35 | 992.4 |
| 20260503180122 | 75 | 225 | 0.0 | 0.0 | 0.00 | 0.00 | 0.00 | 36 | 992.4 |
| 20260503175123 | 77 | 225 | 0.0 | 0.0 | 0.00 | 0.00 | 0.00 | 35 | 992.6 |
| 20260503174124 | 75 | 113 | 0.0 | 0.0 | 0.00 | 0.00 | 0.00 | 37 | 992.7 |
| 20260503173124 | 74 | 203 | 0.0 | 0.0 | 0.00 | 0.00 | 0.00 | 38 | 992.9 |
| 20260503172124 | 74 | 68 | 0.0 | 0.0 | 0.00 | 0.00 | 0.00 | 40 | 992.9 |
| 20260503171124 | 75 | 270 | 0.0 | 0.0 | 0.00 | 0.00 | 0.00 | 36 | 993.2 |
| 20260503170143 | 75 | 270 | 0.0 | 0.0 | 0.00 | 0.00 | 0.00 | 37 | 993.2 |
| 20260503160123 | 70 | 113 | 0.0 | 0.0 | 0.00 | 0.00 | 0.00 | 41 | 993.8 |